Regional Weather Roundup
Issued by NWS Newport/Morehead, NC

Current Version | Previous Version | Graphics & Text | Print | Product List | Glossary On
Versions: 1 2 3 4 5 6 7 8 9 10 11 12 13 14 15 16 17 18 19 20 21 22 23 24 25 26 27 28 29 30 31 32 33 34 35 36 37 38 39 40 41 42 43 44 45 46 47 48 49 50
022 ASUS42 KMHX 090113 RWRMHX WEATHER ROUNDUP FOR EASTERN NORTH CAROLINA NATIONAL WEATHER SERVICE NEWPORT/MOREHEAD CITY NC 800 PM EST MON FEB 08 2016 NOTE: "FAIR" INDICATES FEW OR NO CLOUDS BELOW 12,000 FEET WITH NO SIGNIFICANT WEATHER AND/OR OBSTRUCTIONS TO VISIBILITY NCZ015>017-031-032-045>047-102-103-090200- NORTH COAST CITY SKY/WX TMP DP RH WIND PRES REMARKS EDENTON CLOUDY 45 39 81 E7 29.70F ELIZABETH CITY CLOUDY 43 37 79 E12 29.71F KITTY HAWK CLOUDY 43 36 77 E6 29.71S HAZE MANTEO CLOUDY 42 38 83 E7 29.72S $$ NCZ045>047-081-094-103-104-090200- CENTRAL COAST CITY SKY/WX TMP DP RH WIND PRES REMARKS FRISCO MOCLDY 42 35 76 E5 29.71F SWANQUARTER N/A 45 N/A N/A SE3 29.68S $$ NCZ095-097-098-100-101-090200- SOUTHERN COAST CITY SKY/WX TMP DP RH WIND PRES REMARKS BEAUFORT PTCLDY 52 39 61 SW14 29.69S CEDAR ISLAND N/A 46 N/A N/A S2 29.74S JACKSONVILLE MOCLDY 48 35 60 W7 29.69R PINEY ISLAND PTCLDY N/A N/A N/A CALM 29.69F WILMINGTON CLOUDY 50 39 66 NW16 29.73R $$ NCZ011>013-027>030-043-044-078>080-089-090>093-098-090200- COASTAL PLAIN CITY SKY/WX TMP DP RH WIND PRES REMARKS AHOSKIE MOCLDY 45 32 60 CALM 29.70R CLINTON LGT RAIN 42 40 92 CALM 29.71F ELIZABETHTOWN LGT RAIN 44 41 91 SW6 29.72F GOLDSBORO LGT RAIN 43 43 100 W8 29.71R GREENVILLE CLOUDY 48 34 57 CALM 29.72R HAVELOCK CLEAR 47 37 68 SW5 29.69F KENANSVILLE CLOUDY 43 39 87 W10G18 29.75R FOG KINSTON CLOUDY 46 39 76 W9G21 29.73R NEW BERN MOCLDY 42 36 79 CALM 29.69F RICHLANDS CLOUDY 46 34 61 W13G25 29.72R ROCKY MOUNT LGT RAIN 43 41 93 SW3 29.72R FOG WASHINGTON CLOUDY 46 35 64 CALM 29.68S WHITEVILLE RAIN 45 41 86 SW7 29.72F $$ AMZ130-135-150-152-154-156-158-170-250-252-270-ANZ085-086-088-633-658-670-090200- MARINE OBSERVATIONS STATION/POSITION TIME TEMP WIND PRES WAVE SWELL AIR SEA DIR/SP/G HT/PER HT/PER (UTC) (F) (DEG/KT/KT) (MB) (FT/S) (FT/S) CHESAPEAKE LIGHT 0100 43 100/ 13/ 14 1007.4 64 E VA BEACH 0050 45 52 80/ 4/ 8 1007.0 15/16 15/16 DUCK 0000 43 110/ 12/ 13 1006.0 2 E DUCK 0011 44 N/A 11/15 10/15 OREGON INLET 0000 43 45 100/ 7/ 10 1006.6 13E OREGON INLT 0100 47 N/A 17/17 15/17 HATTERAS CG 0000 46 51 90/ 6/ 8 1005.5 DIAMOND BUOY 0050 58 74 220/ 14/ 19 1005.3 11/14 10/14 CAPE LOOKOUT NOT AVBL BEAUFORT LAB 0000 53 47 230/ 6/ 10 1004.4 30 SE NEW RVR IN 0008 58 62 1005.2 30 SE NEW RVR IN 0025 62 N/A 7/ 6 3/15 27 SE WRIGHTSVLE 0008 57 61 260/ 21/ 31 1004.9 5 SE WRIGHTSVLE 0008 54 52 230/ 17/ 25 1005.2 225 S CAPE HAT 0050 64 69 260/ 25/ 31 N/A 13/15 11/15 41 SE CHARLESTON 0050 61 66 230/ 25/ 31 1005.3 9/ 7 3/16 $$

USA.gov is the U.S. government's official web portal to all federal, state and local government web resources and services.